This is the latest recevied weather packets stored in our database for station/object N7NIP. If no packets are shown the sender has not sent any weather packets the latest 10 day(s).
| Time | Temp. | Humidity | Pressure | Rain* | Wind** | Luminosity | Snow |
|---|---|---|---|---|---|---|---|
| 1777579880 | 21.11° C | 56% | 1032.9 hPa | 0 mm | - | 487 W/m² | - |
| 1777579580 | 21.67° C | 53% | 1033 hPa | 0 mm | - | 517 W/m² | - |
| 1777579274 | 21.67° C | 53% | 1032.9 hPa | 0 mm | - | 721 W/m² | - |
| 1777578970 | 21.67° C | 53% | 1033 hPa | 0 mm | - | 932 W/m² | - |
| 1777578665 | 21.67° C | 51% | 1033 hPa | 0 mm | - | 953 W/m² | - |
| 1777578364 | 21.67° C | 53% | 1033.1 hPa | 0 mm | - | 785 W/m² | - |
| 1777578060 | 21.67° C | 52% | 1033.3 hPa | 0 mm | - | 803 W/m² | - |
| 1777577755 | 21.11° C | 53% | 1033.2 hPa | 0 mm | - | 896 W/m² | - |
| 1777577452 | 20.56° C | 53% | 1033.1 hPa | 0 mm | - | 913 W/m² | - |
| 1777577150 | 21.11° C | 54% | 1033.3 hPa | 0 mm | - | 903 W/m² | - |
| 1777576846 | 20.56° C | 54% | 1033.4 hPa | 0 mm | - | 864 W/m² | - |
| 1777576544 | 20.56° C | 57% | 1033.6 hPa | 0 mm | - | 872 W/m² | - |
| 1777576241 | 20.56° C | 54% | 1033.6 hPa | 0 mm | - | 870 W/m² | - |
| 1777575937 | 20.56° C | 57% | 1033.6 hPa | 0 mm | - | 869 W/m² | - |
| 1777575633 | 20° C | 57% | 1033.7 hPa | 0 mm | - | 855 W/m² | - |
| 1777575330 | 20° C | 57% | 1033.7 hPa | 0 mm | - | 847 W/m² | - |
| 1777575026 | 19.44° C | 56% | 1033.7 hPa | 0 mm | - | 829 W/m² | - |
| 1777574722 | 19.44° C | 60% | 1033.8 hPa | 0 mm | - | 775 W/m² | - |
| 1777574420 | 19.44° C | 57% | 1033.9 hPa | 0 mm | - | 764 W/m² | - |
| 1777574115 | 18.89° C | 59% | 1034 hPa | 0 mm | - | 777 W/m² | - |
| 1777573811 | 18.89° C | 62% | 1034.1 hPa | 0 mm | - | 735 W/m² | - |
| 1777573506 | 18.89° C | 59% | 1034.3 hPa | 0 mm | - | 734 W/m² | - |
| 1777573202 | 18.89° C | 60% | 1034.1 hPa | 0 mm | - | 736 W/m² | - |
| 1777572899 | 18.33° C | 62% | 1034.3 hPa | 0 mm | - | 760 W/m² | - |
| 1777572594 | 18.33° C | 62% | 1034.3 hPa | 0 mm | - | 625 W/m² | - |
* Rain latest hour (hover to see other rain measurements)
** Current wind speed in m/s (hover to see current wind gust speed)